Location: Newark
(45.5000°N, 11.4167°E)
Time: 08:22:58
(UTC+00:00)

Transit 2A Rocket - Pass Details

Date: 25 August 2019
Orbit: 592 x 911 km, 66.7° (Epoch: 19 September)

Event Time Altitude Azimuth Distance (km) Brightness Sun altitude
Rises 01:11:30 0° 334° (NNW) 3,063 8.5 -27.9°
Reaches altitude 10° 01:14:22 10° 349° (N) 2,087 7.8 -27.7°
Maximum altitude 01:18:01 22° 41° (NE) 1,391 7.1 -27.3°
Drops below altitude 10° 01:21:29 10° 92° (E) 1,971 7.5 -27.0°
Sets 01:24:07 0° 109° (ESE) 2,845 8.2 -26.7°
